Snowfall_Accumulation
1.5 1.6 2.1 1.8 1.9 2.2 2.8 4.2 7.3 6.2 1.6 0.3 0.2 0.0 0.0 0.0 0.0 0.0 0.0 0.0 0.1 0.4 0.5 0.4 0.3 0.2 0.1 0.1 0.2 0.3 0.4 0.0 0.0 0.0 0.0 0.0 0.0 0.0
2.0 2.3 2.3 2.3 2.2 2.2 2.7 3.2 5.0 6.9 4.7 0.7 0.2 0.0 0.0 0.0 0.0 0.0 0.0 0.0 0.1 0.2 0.2 0.3 0.2 0.2 0.2 0.2 0.1 0.2 0.3 0.1 0.0 0.0 0.0 0.1 0.1 0.1
2.1 2.6 2.6 2.7 3.1 2.5 2.5 2.7 3.0 4.1 4.9 0.8 0.2 0.0 0.0 0.0 0.0 0.0 0.0 0.0 0.0 0.0 0.1 0.2 0.3 0.3 0.2 0.2 0.2 0.1 0.1 0.1 0.0 0.0 0.0 0.0 0.1 0.1
2.4 2.8 2.9 2.7 2.9 2.6 2.3 2.3 2.0 2.1 3.7 2.4 0.4 0.2 0.1 0.1 0.1 0.1 0.3 0.0 0.2 0.0 0.1 0.2 0.3 0.3 0.3 0.2 0.2 0.2 0.1 0.1 0.1 0.0 0.0 0.0 0.1 0.1
2.7 3.0 3.0 2.8 2.8 2.5 2.5 2.3 1.9 1.5 2.2 3.1 1.5 0.4 0.2 0.2 0.2 0.4 0.3 0.5 0.5 0.0 0.1 0.1 0.2 0.2 0.3 0.3 0.3 0.3 0.2 0.1 0.1 0.1 0.0 0.1 0.1 0.1
2.2 2.1 2.7 3.7 3.6 3.4 3.6 3.1 2.8 3.1 3.3 3.7 2.9 1.7 1.2 0.8 1.2 1.6 1.5 0.8 0.8 1.0 0.5 0.1 0.2 0.3 0.3 0.4 0.4 0.5 0.5 0.5 0.5 0.4 0.4 0.3 0.3 0.2
1.5 1.4 2.2 3.5 3.6 5.0 6.2 5.7 5.5 6.6 6.6 6.8 5.7 4.4 3.5 3.3 3.3 2.6 3.2 2.1 1.4 1.2 1.1 0.5 0.4 0.1 0.1 0.1 0.1 0.4 0.6 0.6 0.6 0.6 0.5 0.5 0.5 0.5
1.5 1.0 1.3 2.4 2.7 3.5 4.4 5.1 5.9 8.5 9.9 10.5 9.4 8.4 5.7 4.0 3.6 4.2 4.7 5.5 4.5 1.5 1.8 1.4 0.6 0.8 0.4 0.3 0.2 0.6 0.7 0.8 0.9 0.9 0.9 0.8 0.8 0.7
1.3 1.1 1.2 1.9 2.5 3.4 3.8 3.2 3.3 4.3 7.1 9.3 11.3 8.8 6.3 4.6 6.1 7.0 6.8 7.4 5.6 2.6 2.9 3.3 1.2 1.7 0.6 0.3 0.3 0.7 1.0 1.1 1.2 1.2 1.3 1.2 1.2 1.2
1.0 1.0 1.2 1.5 2.7 5.0 5.2 4.8 4.1 4.5 5.6 7.3 10.6 9.5 6.8 5.4 7.9 10.9 11.3 10.6 5.8 2.3 2.8 6.4 2.0 1.7 0.9 0.6 0.3 0.5 0.8 1.0 1.2 1.4 1.5 1.5 1.5 1.4
0.7 0.6 1.1 1.6 2.9 4.9 5.7 5.2 3.7 3.3 3.7 4.9 5.9 7.6 6.9 6.2 6.0 10.4 13.8 14.3 10.4 4.0 2.7 5.8 3.4 2.4 2.0 1.4 0.7 0.6 1.0 0.9 1.2 1.3 1.5 1.4 1.6 1.6
1.3 0.9 1.4 2.6 3.4 4.3 5.1 5.6 7.2 5.2 4.1 3.8 3.8 4.1 4.8 5.5 4.4 8.1 10.6 13.9 12.4 8.5 4.1 5.8 5.1 5.2 5.9 2.2 2.1 1.4 1.0 0.7 0.8 0.9 1.1 1.3 1.7 1.5
2.8 1.7 1.3 2.7 3.3 3.4 4.0 5.2 8.8 7.2 5.0 5.2 4.8 4.6 4.6 5.7 7.2 9.4 10.2 12.4 14.2 11.8 6.8 9.4 9.7 8.0 10.3 5.7 3.6 2.3 1.6 1.1 0.9 1.0 0.8 0.8 1.2 1.5
3.6 2.2 1.8 2.5 2.6 2.8 3.3 3.8 4.3 4.5 5.0 5.3 5.3 5.4 5.7 6.7 6.9 8.5 11.4 13.1 10.7 8.5 6.4 10.3 14.8 12.3 12.9 10.6 6.6 4.8 3.3 2.8 2.4 2.1 1.8 1.5 1.4 1.2
3.2 2.4 2.2 2.3 2.3 2.5 2.4 3.2 3.3 4.7 6.5 6.9 6.3 5.5 6.1 6.9 7.0 7.6 8.9 10.6 10.5 8.4 5.9 6.6 10.6 11.6 13.0 12.9 8.4 5.9 4.7 3.4 2.9 2.3 2.2 2.1 2.0 1.9
3.6 2.9 3.1 2.8 2.6 2.2 2.2 2.7 3.2 4.6 6.9 7.9 6.6 5.3 5.2 6.0 6.8 8.0 9.1 10.6 11.0 9.2 6.8 5.2 7.1 10.4 11.5 8.2 8.1 6.4 5.0 5.0 3.6 3.2 2.5 2.2 1.6 1.4
5.6 6.1 5.2 4.2 3.9 3.3 3.0 2.7 3.1 4.0 5.3 5.4 6.0 6.0 5.4 5.6 6.0 7.2 9.4 11.0 13.3 13.1 11.9 7.0 7.3 8.0 7.9 8.9 8.9 6.3 4.6 4.6 4.3 4.0 4.0 3.3 1.9 1.5
5.9 7.8 5.7 4.6 4.3 4.3 4.1 3.9 3.3 3.5 3.9 4.5 5.3 6.0 6.3 6.8 6.6 6.5 8.4 11.2 13.4 13.7 14.3 13.6 10.9 11.6 11.2 10.3 9.0 7.3 5.4 4.7 4.5 4.4 4.8 5.4 3.6 1.7
5.8 5.5 4.6 4.4 4.4 4.4 4.3 4.6 3.9 3.2 3.7 4.6 4.9 5.4 6.1 6.6 6.7 6.9 7.5 9.4 11.5 13.1 14.2 13.9 13.8 15.2 16.5 18.2 13.2 6.7 7.3 6.4 5.1 4.6 4.0 5.0 5.4 3.0
4.3 4.9 4.7 4.3 4.4 4.8 4.9 4.8 4.1 3.8 3.9 4.4 4.7 4.8 5.5 6.5 7.0 7.0 7.5 9.1 10.9 12.5 13.0 13.8 15.4 16.8 19.6 18.3 17.3 12.1 7.1 7.8 7.7 6.7 4.9 3.9 3.6 2.6
4.1 4.2 4.3 4.6 4.8 4.9 5.2 5.1 5.1 5.1 4.8 4.9 5.1 5.0 5.1 5.9 6.6 6.3 7.0 7.9 9.9 12.1 13.4 13.2 13.7 15.1 15.9 16.1 15.6 13.5 11.9 9.1 7.2 9.1 8.8 9.0 7.8 6.4
4.3 4.3 4.4 4.4 4.7 5.1 5.5 5.3 5.7 5.3 5.0 5.2 5.0 4.8 4.7 5.1 5.9 6.1 6.8 8.1 9.1 10.4 12.0 12.0 12.2 13.5 16.4 18.1 17.1 14.6 13.3 11.7 8.4 6.3 6.5 7.7 12.3 14.2
5.5 5.5 5.3 4.9 4.6 5.0 5.5 5.6 5.9 5.2 5.0 5.2 5.2 4.9 4.9 5.2 5.1 5.8 6.5 7.0 8.3 9.3 10.3 12.0 12.8 13.1 14.8 16.4 17.3 15.9 14.0 12.2 11.1 10.0 8.7 4.5 4.0 5.1